OH6HPS Weather Reports


time (UTC)temp
F
wind
direction
speed
knots
gust
knots
rain 1hr
in
rain 24hr
in
rain mn
in
humidity
%
barometer
mb
20260507093604 57 86 1.7 5.2 0.00 0.00 0.00 24 1015.0
20260507092603 56 220 1.7 6.1 0.00 0.00 0.00 26 1015.0
20260507091604 56 214 1.7 7.8 0.00 0.00 0.00 24 1015.0
20260507090603 56 252 0.9 5.2 0.00 0.00 0.00 27 1015.1
20260507085603 55 159 3.5 7.8 0.00 0.00 0.00 27 1015.1
20260507084603 56 166 1.7 6.1 0.00 0.00 0.00 27 1015.2
20260507083604 55 151 2.6 7.8 0.00 0.00 0.00 27 1015.2
20260507082603 56 162 4.3 7.8 0.00 0.00 0.00 25 1015.2
20260507081602 56 188 2.6 4.3 0.00 0.00 0.00 27 1015.3
20260507080602 55 175 3.5 6.1 0.00 0.00 0.00 30 1015.3
20260507075601 54 231 1.7 5.2 0.00 0.00 0.00 31 1015.3
20260507074601 54 118 2.6 5.2 0.00 0.00 0.00 30 1015.3
20260507073602 53 226 2.6 4.3 0.00 0.00 0.00 27 1015.3
20260507072601 53 158 0.0 4.3 0.00 0.00 0.00 31 1015.4
20260507071559 53 69 0.9 4.3 0.00 0.00 0.00 33 1015.4
20260507070601 52 164 2.6 3.5 0.00 0.00 0.00 34 1015.4
20260507065600 52 69 1.7 4.3 0.00 0.00 0.00 35 1015.4
20260507064600 52 183 1.7 5.2 0.00 0.00 0.00 36 1015.4
20260507063559 51 90 0.0 3.5 0.00 0.00 0.00 40 1015.4
20260507062600 50 87 1.7 4.3 0.00 0.00 0.00 40 1015.4
20260507061600 49 62 1.7 3.5 0.00 0.00 0.00 42 1015.4
20260507060559 48 110 1.7 4.3 0.00 0.00 0.00 42 1015.3
20260507055559 48 94 3.5 4.3 0.00 0.00 0.00 42 1015.2
20260507054559 47 90 2.6 4.3 0.00 0.00 0.00 43 1015.3
20260507053558 47 79 1.7 4.3 0.00 0.00 0.00 44 1015.3
20260507052559 45 149 1.7 4.3 0.00 0.00 0.00 46 1015.2
20260507051559 44 96 1.7 4.3 0.00 0.00 0.00 47 1015.3
20260507050558 44 114 2.6 3.5 0.00 0.00 0.00 48 1015.3
20260507045558 43 114 3.5 6.1 0.00 0.00 0.00 49 1015.3
20260507044558 42 104 3.5 4.3 0.00 0.00 0.00 51 1015.3
20260507043557 40 118 1.7 3.5 0.00 0.00 0.00 55 1015.3
20260507042557 38 96 1.7 3.5 0.00 0.00 0.00 60 1015.3
20260507041556 36 104 1.7 4.3 0.00 0.00 0.00 65 1015.3
20260507040557 34 104 2.6 4.3 0.00 0.00 0.00 67 1015.3
20260507035556 31 93 1.7 3.5 0.00 0.00 0.00 74 1015.2
20260507034556 29 69 0.9 3.5 0.00 0.00 0.00 78 1015.2
20260507033555 27 86 1.7 3.5 0.00 0.00 0.00 81 1015.2
20260507032555 26 235 0.0 1.7 0.00 0.00 0.00 81 1015.2
20260507031555 26 235 0.0 1.7 0.00 0.00 0.00 80 1015.0
20260507030555 26 235 0.0 0.0 0.00 0.00 0.00 81 1015.0
20260507025554 26 235 0.0 0.0 0.00 0.00 0.00 80 1015.0
20260507024554 25 235 0.0 0.0 0.00 0.00 0.00 80 1015.0
20260507023554 25 235 0.0 0.0 0.00 0.00 0.00 80 1015.1
20260507022554 25 235 0.0 0.9 0.00 0.00 0.00 81 1015.1
20260507021553 25 259 0.0 0.0 0.00 0.00 0.00 80 1015.0
20260507020553 25 259 0.0 0.0 0.00 0.00 0.00 81 1015.1
20260507015553 25 259 0.0 0.0 0.00 0.00 0.00 80 1015.0
20260507014553 25 259 0.0 0.9 0.00 0.00 0.00 80 1015.1
20260507013552 25 259 0.0 0.0 0.00 0.00 0.00 80 1014.9
20260507012605 25 259 0.0 0.0 0.00 0.00 0.00 79 1014.9
20260507011552 25 259 0.0 0.0 0.00 0.00 0.00 79 1014.8
20260507010551 25 259 0.0 0.0 0.00 0.00 0.00 79 1014.7
20260507005551 26 259 0.0 0.0 0.00 0.00 0.00 78 1014.7
20260507004551 26 259 0.0 0.9 0.00 0.00 0.00 77 1014.7
20260507003551 26 259 0.0 0.0 0.00 0.00 0.00 77 1014.6
20260507002550 27 259 0.0 0.9 0.00 0.00 0.00 77 1014.5
20260507001550 27 259 0.0 0.0 0.00 0.00 0.00 77 1014.4
20260507000551 27 259 0.0 0.0 0.00 0.00 0.00 76 1014.3
20260506235550 28 259 0.0 0.9 0.00 0.00 0.00 76 1014.2
20260506234549 28 259 0.0 0.9 0.00 0.00 0.00 76 1014.3
20260506233549 28 259 0.0 0.0 0.00 0.00 0.00 76 1014.1
20260506232549 28 259 0.0 0.0 0.00 0.00 0.00 76 1014.1
20260506231549 28 259 0.0 0.0 0.00 0.00 0.00 76 1014.2
20260506230548 28 259 0.0 0.0 0.00 0.00 0.00 75 1014.2
20260506225548 28 259 0.0 0.0 0.00 0.00 0.00 74 1014.3
20260506224548 29 259 0.0 0.0 0.00 0.00 0.00 74 1014.3
20260506223548 29 259 0.0 0.0 0.00 0.00 0.00 74 1014.3
20260506222546 29 259 0.0 0.0 0.00 0.00 0.00 74 1014.3
20260506221547 30 259 0.0 0.0 0.00 0.00 0.00 74 1014.3
20260506220547 30 259 0.0 0.0 0.00 0.00 0.00 73 1014.2
20260506215547 30 259 0.0 0.0 0.00 0.00 0.00 73 1014.2
20260506214546 30 259 0.0 0.0 0.00 0.00 0.00 73 1014.2
20260506213546 31 259 0.0 0.0 0.00 0.00 0.00 71 1014.1
20260506212547 31 259 0.0 0.0 0.00 0.00 0.00 70 1014.1
20260506211547 31 259 0.0 0.0 0.00 0.00 0.00 70 1014.1
20260506210546 32 259 0.0 0.0 0.00 0.00 0.00 69 1014.1
20260506205546 32 259 0.0 0.0 0.00 0.00 0.00 68 1013.9
20260506204546 33 259 0.0 0.0 0.00 0.00 0.00 67 1013.9
20260506203544 33 259 0.0 0.0 0.00 0.00 0.00 67 1013.9
20260506202544 34 259 0.0 0.0 0.00 0.00 0.00 67 1013.9
20260506201545 35 259 0.0 0.0 0.00 0.00 0.00 65 1014.0
20260506200544 35 259 0.0 0.0 0.00 0.00 0.00 64 1014.1
20260506195545 36 259 0.0 0.0 0.00 0.00 0.00 63 1014.1
20260506194543 37 259 0.0 0.0 0.00 0.00 0.00 61 1014.1
20260506193544 38 259 0.0 0.0 0.00 0.00 0.00 59 1014.0
20260506192543 39 259 0.0 0.0 0.00 0.00 0.00 57 1014.0
20260506191543 40 259 0.0 0.0 0.00 0.00 0.00 54 1013.9
20260506190543 41 259 0.0 0.9 0.00 0.00 0.00 51 1013.9
20260506185542 42 259 0.0 0.0 0.00 0.00 0.00 51 1013.8
20260506184542 42 259 0.0 0.9 0.00 0.00 0.00 48 1013.6
20260506183544 43 259 0.0 2.6 0.00 0.00 0.00 45 1013.5
20260506182540 44 259 0.0 2.6 0.00 0.00 0.00 46 1013.5
20260506181541 45 262 0.0 1.7 0.00 0.00 0.00 44 1013.4
20260506180542 46 262 0.9 1.7 0.00 0.00 0.00 43 1013.4
20260506175541 47 262 0.9 3.5 0.00 0.00 0.00 38 1013.3
20260506174541 49 209 0.9 1.7 0.00 0.00 0.00 36 1013.2
20260506173541 50 209 0.9 2.6 0.00 0.00 0.00 29 1013.2
20260506172540 50 234 0.9 2.6 0.00 0.00 0.00 29 1013.2
20260506171540 50 230 0.9 5.2 0.00 0.00 0.00 28 1013.2
20260506170540 51 1 1.7 5.2 0.00 0.00 0.00 28 1013.2
20260506165540 51 269 0.9 4.3 0.00 0.00 0.00 27 1013.3
20260506164539 52 282 1.7 3.5 0.00 0.00 0.00 27 1013.2
20260506163540 52 261 2.6 4.3 0.00 0.00 0.00 29 1013.1
20260506162538 53 65 0.9 2.6 0.00 0.00 0.00 25 1013.1
20260506161538 54 248 3.5 5.2 0.00 0.00 0.00 26 1013.0
20260506160538 54 278 1.7 4.3 0.00 0.00 0.00 27 1013.0
20260506155538 54 228 0.9 6.1 0.00 0.00 0.00 26 1013.1
20260506154538 54 72 1.7 5.2 0.00 0.00 0.00 27 1013.0
20260506153538 54 92 2.6 7.8 0.00 0.00 0.00 25 1013.0
20260506152537 55 62 1.7 6.1 0.00 0.00 0.00 26 1013.0
20260506151537 55 241 1.7 7.8 0.00 0.00 0.00 26 1013.0
20260506150538 55 283 2.6 9.6 0.00 0.00 0.00 25 1012.9
20260506145535 55 217 0.9 5.2 0.00 0.00 0.00 26 1013.0
20260506144537 56 257 1.7 6.1 0.00 0.00 0.00 26 1013.1
20260506143537 55 285 5.2 8.7 0.00 0.00 0.00 27 1013.1
20260506142536 56 100 2.6 7.8 0.00 0.00 0.00 25 1013.1
20260506141536 55 0 2.6 4.3 0.00 0.00 0.00 26 1013.0
20260506140535 55 221 3.5 8.7 0.00 0.00 0.00 26 1013.0
20260506135535 55 283 5.2 9.6 0.00 0.00 0.00 26 1012.9
20260506134535 56 272 5.2 7.8 0.00 0.00 0.00 26 1013.0
20260506133536 56 230 3.5 7.8 0.00 0.00 0.00 26 1013.1
20260506132534 56 72 1.7 8.7 0.00 0.00 0.00 24 1013.1
20260506131534 56 212 2.6 11.3 0.00 0.00 0.00 24 1013.0
20260506130534 56 186 4.3 8.7 0.00 0.00 0.00 25 1013.0
20260506125535 56 237 4.3 10.4 0.00 0.00 0.00 25 1012.9
20260506124533 56 214 4.3 9.6 0.00 0.00 0.00 25 1013.0
20260506123533 56 219 4.3 9.6 0.00 0.00 0.00 26 1013.0
20260506122532 56 275 6.1 9.6 0.00 0.00 0.00 32 1013.0
20260506121533 54 219 2.6 7.8 0.00 0.00 0.00 31 1012.9
20260506120533 54 82 3.5 10.4 0.00 0.00 0.00 28 1012.9
20260506115533 54 282 4.3 7.8 0.00 0.00 0.00 31 1013.0
20260506114533 53 69 3.5 6.1 0.00 0.00 0.00 31 1013.0
20260506113533 54 216 1.7 8.7 0.00 0.00 0.00 27 1013.0
20260506112531 54 86 4.3 9.6 0.00 0.00 0.00 30 1013.0
20260506111531 54 231 3.5 7.8 0.00 0.00 0.00 30 1013.0
20260506110531 55 275 2.6 9.6 0.00 0.00 0.00 32 1012.9
20260506105531 54 255 5.2 10.4 0.00 0.00 0.00 32 1013.0
20260506104530 53 204 6.1 11.3 0.00 0.00 0.00 33 1012.9
20260506103529 51 216 4.3 8.7 0.00 0.00 0.00 37 1012.9
20260506102531 52 206 1.7 8.7 0.00 0.00 0.00 36 1012.9
20260506101530 52 244 5.2 10.4 0.00 0.00 0.00 36 1012.8
20260506095530 53 59 3.5 13.0 0.00 0.00 0.00 36 1012.9
20260506094529 53 244 4.3 7.8 0.00 0.00 0.00 35 1012.7